Regional Weather Roundup
Issued by NWS San Angelo, TX

Home | Current Version | Previous Version | Text Only | Print | Product List | Glossary On
Versions: 1 2 3 4 5 6 7 8 9 10 11 12 13 14 15 16 17 18 19 20 21 22 23 24 25 26 27 28 29 30 31 32 33 34 35 36 37 38 39 40 41 42 43 44 45 46 47 48 49 50
000
ASUS44 KSJT 251811
RWRSJT
WEST CENTRAL TEXAS REGIONAL WEATHER ROUNDUP
NATIONAL WEATHER SERVICE SAN ANGELO TX
100 PM CDT MON JUL 25 2016

NOTE: "FAIR" INDICATES FEW OR NO CLOUDS BELOW 12,000 FEET WITH NO
SIGNIFICANT WEATHER AND/OR OBSTRUCTIONS TO VISIBILITY.

TXZ049-054-064>066-071>073-076>078-098-099-113-114-127-128-139-140-
154-155-168>170-251900
...LOCATIONS ACROSS WEST CENTRAL TEXAS...

CITY           SKY/WX    TMP DP  RH WIND       PRES   REMARKS
SAN ANGELO     MOSUNNY   97  65  34 MISG      30.01F
ABILENE        MOSUNNY   94  65  38 E9        30.02F
DYESS AFB      MOSUNNY   96  67  38 VRB6      30.01S
JUNCTION       SUNNY     95  65  37 MISG      30.00F
SWEETWATER     PTSUNNY   93  61  33 CALM      30.07F
BROWNWOOD      LGT RAIN  95  64  36 NW3       29.99F
COLEMAN        MOCLDY    96  63  33 E7        30.01S
SONORA         SUNNY     93  64  38 VRB6G12   30.06F
OZONA          FAIR      93  61  33 CALM      30.05F
BRADY          NOT AVBL
$$

TEXAS PANHANDLE/OKLAHOMA PANHANDLE

CITY           SKY/WX    TMP DP  RH WIND       PRES   REMARKS
AMARILLO       SUNNY     92  60  34 NW10      30.14F
BORGER         SUNNY     87  67  51 NE10G17   30.14S
CANADIAN       SUNNY     88  69  54 E7        30.10F
DALHART        SUNNY     86  64  47 E7        30.19F
DUMAS          CLEAR     88  65  46 E8        30.17S
GUYMON         NOT AVBL
HEREFORD       CLEAR     93  59  32 NW6       30.16F
PAMPA          CLEAR     87  68  53 NE14G21   30.15F
PERRYTON       SUNNY     85  67  54 NE8       30.15F
$$

SOUTHERN PANHANDLE/SOUTH PLAINS/ROLLING PLAINS

CITY           SKY/WX    TMP DP  RH WIND       PRES   REMARKS
LUBBOCK        MOSUNNY   96  59  29 N7        30.11F
SNYDER           N/A     92  65  40 E6        30.06F
CHILDRESS      SUNNY     98  65  33 CALM      30.03F
SEMINOLE       MOCLDY    93  57  29 SE3       30.11F
$$

PERMIAN BASIN

CITY           SKY/WX    TMP DP  RH WIND       PRES   REMARKS
MIDLAND        SUNNY     96  59  29 E5G17     30.06F
ODESSA         MOSUNNY   94  60  32 SE9       30.07F
WINK           SUNNY     96  60  30 SE13G20   30.04F
$$

FAR WEST/SOUTHWEST MOUNTAINS/TRANS PECOS

CITY           SKY/WX    TMP DP  RH WIND       PRES   REMARKS
ALPINE         PTCLDY    91  52  25 E8G17     30.20F
DRYDEN           N/A     96  65  35 SE9       29.99F
EL PASO        MOSUNNY   97  48  18 E9        30.09F
FORT STOCKTON  MOSUNNY   92  60  34 E14G20    30.06F
GUADALUPE PASS PTSUNNY   87  53  31 E25G31    30.24F
MARFA          NOT AVBL
PECOS          PTCLDY    97  58  27 E15G24    30.03F
$$

DALLAS/FORT WORTH METROPLEX

CITY           SKY/WX    TMP DP  RH WIND       PRES   REMARKS
DFW AIRPORT    CLOUDY    93  72  50 NE5       29.96F
FTW MEACHAM    CLOUDY    96  71  44 S5        29.95F
DAL-EXECUTIVE  SUNNY     95  71  45 VRB3      29.96F
GRAND PRAIRIE  SUNNY     95  72  46 CALM      29.98F
ADDISON        MOSUNNY   95  72  46 CALM      29.96F
MESQUITE       CLEAR     91  73  55 CALM      29.96F
LANCASTER      CLEAR     96  72  46 NE6       29.96F
$$

NORTH CENTRAL TEXAS

CITY           SKY/WX    TMP DP  RH WIND       PRES   REMARKS
SHRMAN/DENISON PTCLDY    95  75  53 NE6       29.99F
GAINESVILLE    SUNNY     94  72  47 NE5       30.00S
BRIDGEPORT     CLEAR     96  70  42 E7        29.99F
DENTON         MOSUNNY   94  75  54 E5        29.96F
WAXAHACHIE     CLOUDY    94  74  52 N5        29.98S
GRANBURY       CLEAR     98  65  33 E7        29.97F
$$

WESTERN NORTH TEXAS

CITY           SKY/WX    TMP DP  RH WIND       PRES   REMARKS
WICHITA FALLS  MOSUNNY   97  68  38 VRB5      29.98F
VERNON         CLEAR     96  63  33 E5        30.00F
BRECKENRIDGE   PTCLDY    98  63  30 SE7       29.98F
COMANCHE       SUNNY     96  65  36 NE3       30.00F
$$

CENTRAL AND SOUTH CENTRAL TEXAS

CITY           SKY/WX    TMP DP  RH WIND       PRES   REMARKS
AUSTIN/BERGSTM MOSUNNY   96  72  45 SW7       29.94F
WACO           MOSUNNY   98  69  38 VRB6      29.94F
HILLSBORO      CLOUDY    92  72  51 CALM      29.96F
TEMPLE         SUNNY     97  71  42 VRB6      29.96F
KILLEEN-GRAY   MOSUNNY   95  67  39 NE6       29.96F
FORT HOOD      SUNNY     94  68  43 VRB3      29.95S
GEORGETOWN     MOSUNNY   97  66  36 E5        29.96F
LAGO VISTA     FAIR      95  66  38 SE9       29.99F
SAN MARCOS     SUNNY     93  72  49 S6        29.97F
NEW BRAUNFELS  SUNNY     95  69  42 SW7       29.94F
RANDOLPH AFB   MOSUNNY   93  69  46 CALM      29.96F
SAN ANTONIO    MOSUNNY   92  69  47 S5        29.97F
STINSON        MOSUNNY   94  68  42 VRB3      29.94F
PLEASANTON     NOT AVBL
LA GRANGE        N/A     92  75  56 CALM      29.93F HAZE
GIDDINGS       CLEAR     92  68  44 S3        29.99F
$$

EAST TEXAS

CITY           SKY/WX    TMP DP  RH WIND       PRES   REMARKS
PARIS          MOSUNNY   93  70  46 E5        29.98F
CLARKSVILLE    NOT AVBL
TYLER          CLOUDY    89  74  60 CALM      29.97F
LONGVIEW       PTSUNNY   92  76  59 NE6       29.94F
PALESTINE      PTCLDY    92  74  55 N6        29.97F
NACOGDOCHES    MOSUNNY  N/A N/A N/A NE9       29.94F
$$

TEXAS HILL COUNTRY AND EDWARDS PLATEAU

CITY           SKY/WX    TMP DP  RH WIND       PRES   REMARKS
LLANO          CLEAR     97  66  36 NE3       30.00F
HORSESHOE BAY  FAIR      96  64  34 E5        29.98F
KERRVILLE      SUNNY     92  72  52 S7        30.02S
FREDERICKSBRG  MOSUNNY   92  64  39 CALM      30.01F
ROCKSPRINGS    PTCLDY    91  64  40 N5        30.05F
HONDO          SUNNY     93  68  43 SE8       29.99S
UVALDE         CLEAR     92  70  48 SE5       29.96F
DEL RIO        SUNNY     96  68  39 MISG      29.93F
$$

SOUTHEAST TEXAS

CITY           SKY/WX    TMP DP  RH WIND       PRES   REMARKS
COLLEGE STN    SUNNY     94  74  52 VRB5      29.94F
CALDWELL       PTCLDY    91  70  49 CALM      29.97F
CROCKETT       MOCLDY    93  73  52 NE6       29.98F
BRENHAM        PTSUNNY   93  73  53 W3        29.95F
HUNTSVILLE     SUNNY     92  72  51 MISG      29.95F
CONROE         MOSUNNY   95  71  45 N9        29.94F
HOUSTON BUSH   LGT RAIN  92  72  51 CALM      29.93F
HOUSTON HOBBY  MOSUNNY   96  71  44 N3        29.91F
PERLAND        MOSUNNY   97  69  40 VRB6      29.93F
WHARTON        PTCLDY    95  74  51 SW3       29.94F
$$

THE UPPER TEXAS COAST

CITY           SKY/WX    TMP DP  RH WIND       PRES   REMARKS
ORANGE         TSTM      77  72  83 S14G25    29.96R
PORT ARTHUR    TSTM      78  77  96 VRB3      29.96R
GALVESTON      TSTM      78  75  90 SW9       29.96R
ANGLETON       TSTM      84  76  76 SE14      29.96R
BAY CITY       MOCLDY    93  72  50 S5        29.93F
$$

TEXAS COASTAL BEND, RIO GRANDE PLAINS DEEP SOUTH TEXAS

CITY           SKY/WX    TMP DP  RH WIND       PRES   REMARKS
VICTORIA       PTSUNNY   92  70  48 VRB6      29.93F
BEEVILLE       MOCLDY    93  72  51 S10       29.93S
ROCKPORT       MOSUNNY   93  74  53 SE9       29.92F
PORT ARANSAS   CLEAR     89  77  67 S8        29.93S
PORT LAVACA    PTCLDY    92  77  61 SE5       29.93F
CORPUS CHRISTI PTSUNNY   94  74  52 SE6G17    29.91F
KINGSVILLE NAS PTSUNNY   92  76  59 S3        29.91F
COTULLA        MOSUNNY   96  68  39 SE10      29.92F
LAREDO         SUNNY     96  73  47 E9        29.91F
BROWNSVILLE    MOSUNNY   95  73  48 S16G24    29.91F
PORT ISABEL    MOSUNNY   95  72  47 SE14G23   29.90F
HEBBRONVILLE   PTCLDY    95  67  40 S7        29.93F
MCALLEN        SUNNY     98  69  38 SE12G20   29.90F
WESLACO        SUNNY     92  -7   2 SE9       29.89F
FALFURRIAS     PTCLDY    95  69  41 SE8       29.90F
EDINBURG       PTCLDY    97  68  37 S9G17     29.89F
$$




USA.gov is the U.S. government's official web portal to all federal, state and local government web resources and services.